owner,sensor,date,latitude,longitude,vertical_datum,sea_water_temperature,qcFlag
Shell,ioos:station:wmo:42363:1,2020-10-01T00:05:00Z,28.1600,-89.2200,10.0,27.7,11111222
Shell,ioos:station:wmo:42363:1,2020-10-01T00:15:00Z,28.1600,-89.2200,10.0,27.7,11111222
Shell,ioos:station:wmo:42363:1,2020-10-01T00:25:00Z,28.1600,-89.2200,10.0,27.7,11111222
Shell,ioos:station:wmo:42363:1,2020-10-01T00:35:00Z,28.1600,-89.2200,10.0,27.7,11111222
Shell,ioos:station:wmo:42363:1,2020-10-01T00:45:00Z,28.1600,-89.2200,10.0,27.7,11111222
Shell,ioos:station:wmo:42363:1,2020-10-01T00:55:00Z,28.1600,-89.2200,10.0,27.8,11111222
Shell,ioos:station:wmo:42363:1,2020-10-01T01:05:00Z,28.1600,-89.2200,10.0,27.7,11111222
Shell,ioos:station:wmo:42363:1,2020-10-01T01:15:00Z,28.1600,-89.2200,10.0,27.7,11111222
Shell,ioos:station:wmo:42363:1,2020-10-01T01:25:00Z,28.1600,-89.2200,10.0,27.7,11111222
Shell,ioos:station:wmo:42363:1,2020-10-01T01:35:00Z,28.1600,-89.2200,10.0,27.7,11111222
Shell,ioos:station:wmo:42363:1,2020-10-01T01:45:00Z,28.1600,-89.2200,10.0,27.8,11111222
Shell,ioos:station:wmo:42363:1,2020-10-01T01:55:00Z,28.1600,-89.2200,10.0,27.8,11111222
Shell,ioos:station:wmo:42363:1,2020-10-01T02:05:00Z,28.1600,-89.2200,10.0,27.8,11111222
Shell,ioos:station:wmo:42363:1,2020-10-01T02:15:00Z,28.1600,-89.2200,10.0,27.8,11111222
Shell,ioos:station:wmo:42363:1,2020-10-01T02:25:00Z,28.1600,-89.2200,10.0,27.8,11111222
Shell,ioos:station:wmo:42363:1,2020-10-01T02:35:00Z,28.1600,-89.2200,10.0,27.7,11111222
Shell,ioos:station:wmo:42363:1,2020-10-01T02:45:00Z,28.1600,-89.2200,10.0,27.7,11111222
Shell,ioos:station:wmo:42363:1,2020-10-01T02:55:00Z,28.1600,-89.2200,10.0,27.8,11111222
Shell,ioos:station:wmo:42363:1,2020-10-01T03:05:00Z,28.1600,-89.2200,10.0,27.7,11111222
Shell,ioos:station:wmo:42363:1,2020-10-01T03:15:00Z,28.1600,-89.2200,10.0,27.8,11111222
Shell,ioos:station:wmo:42363:1,2020-10-01T03:25:00Z,28.1600,-89.2200,10.0,27.8,11111222
Shell,ioos:station:wmo:42363:1,2020-10-01T03:35:00Z,28.1600,-89.2200,10.0,27.8,11111222
Shell,ioos:station:wmo:42363:1,2020-10-01T03:45:00Z,28.1600,-89.2200,10.0,27.7,11111222
Shell,ioos:station:wmo:42363:1,2020-10-01T03:55:00Z,28.1600,-89.2200,10.0,27.8,11111222
Shell,ioos:station:wmo:42363:1,2020-10-01T04:05:00Z,28.1600,-89.2200,10.0,27.8,11111222
Shell,ioos:station:wmo:42363:1,2020-10-01T04:15:00Z,28.1600,-89.2200,10.0,27.8,11111222
Shell,ioos:station:wmo:42363:1,2020-10-01T04:25:00Z,28.1600,-89.2200,10.0,27.8,11111222
Shell,ioos:station:wmo:42363:1,2020-10-01T04:35:00Z,28.1600,-89.2200,10.0,27.8,11111222
Shell,ioos:station:wmo:42363:1,2020-10-01T04:45:00Z,28.1600,-89.2200,10.0,27.8,11111222
Shell,ioos:station:wmo:42363:1,2020-10-01T04:55:00Z,28.1600,-89.2200,10.0,27.7,11111222
Shell,ioos:station:wmo:42363:1,2020-10-01T05:05:00Z,28.1600,-89.2200,10.0,27.7,11111222
Shell,ioos:station:wmo:42363:1,2020-10-01T05:15:00Z,28.1600,-89.2200,10.0,27.7,11111222
Shell,ioos:station:wmo:42363:1,2020-10-01T05:25:00Z,28.1600,-89.2200,10.0,27.7,11111222
Shell,ioos:station:wmo:42363:1,2020-10-01T05:35:00Z,28.1600,-89.2200,10.0,27.7,11111222
Shell,ioos:station:wmo:42363:1,2020-10-01T05:45:00Z,28.1600,-89.2200,10.0,27.7,11111222
Shell,ioos:station:wmo:42363:1,2020-10-01T05:55:00Z,28.1600,-89.2200,10.0,27.7,11111222
Shell,ioos:station:wmo:42363:1,2020-10-01T06:05:00Z,28.1600,-89.2200,10.0,27.7,11111222
Shell,ioos:station:wmo:42363:1,2020-10-01T06:15:00Z,28.1600,-89.2200,10.0,27.7,11111222
Shell,ioos:station:wmo:42363:1,2020-10-01T06:25:00Z,28.1600,-89.2200,10.0,27.7,11111222
Shell,ioos:station:wmo:42363:1,2020-10-01T06:35:00Z,28.1600,-89.2200,10.0,27.8,11111222
Shell,ioos:station:wmo:42363:1,2020-10-01T06:45:00Z,28.1600,-89.2200,10.0,27.7,11111222
Shell,ioos:station:wmo:42363:1,2020-10-01T06:55:00Z,28.1600,-89.2200,10.0,27.8,11111222
Shell,ioos:station:wmo:42363:1,2020-10-01T07:05:00Z,28.1600,-89.2200,10.0,27.8,11111222
Shell,ioos:station:wmo:42363:1,2020-10-01T07:15:00Z,28.1600,-89.2200,10.0,27.7,11111222
Shell,ioos:station:wmo:42363:1,2020-10-01T07:25:00Z,28.1600,-89.2200,10.0,27.8,11111222
Shell,ioos:station:wmo:42363:1,2020-10-01T07:35:00Z,28.1600,-89.2200,10.0,27.1,11111222
Shell,ioos:station:wmo:42363:1,2020-10-01T07:45:00Z,28.1600,-89.2200,10.0,26.8,11111222
Shell,ioos:station:wmo:42363:1,2020-10-01T07:55:00Z,28.1600,-89.2200,10.0,27.3,11111222
Shell,ioos:station:wmo:42363:1,2020-10-01T08:05:00Z,28.1600,-89.2200,10.0,27.4,11111222
Shell,ioos:station:wmo:42363:1,2020-10-01T08:15:00Z,28.1600,-89.2200,10.0,27.1,11111222
Shell,ioos:station:wmo:42363:1,2020-10-01T08:25:00Z,28.1600,-89.2200,10.0,26.8,11111222
Shell,ioos:station:wmo:42363:1,2020-10-01T08:35:00Z,28.1600,-89.2200,10.0,26.9,11111222
Shell,ioos:station:wmo:42363:1,2020-10-01T08:45:00Z,28.1600,-89.2200,10.0,27.1,11111222
Shell,ioos:station:wmo:42363:1,2020-10-01T08:55:00Z,28.1600,-89.2200,10.0,27.4,11111222
Shell,ioos:station:wmo:42363:1,2020-10-01T09:05:00Z,28.1600,-89.2200,10.0,27.0,11111222
Shell,ioos:station:wmo:42363:1,2020-10-01T09:15:00Z,28.1600,-89.2200,10.0,27.1,11111222
Shell,ioos:station:wmo:42363:1,2020-10-01T09:25:00Z,28.1600,-89.2200,10.0,26.9,11111222
Shell,ioos:station:wmo:42363:1,2020-10-01T09:35:00Z,28.1600,-89.2200,10.0,26.6,11111222
Shell,ioos:station:wmo:42363:1,2020-10-01T09:45:00Z,28.1600,-89.2200,10.0,26.6,11111222
Shell,ioos:station:wmo:42363:1,2020-10-01T09:55:00Z,28.1600,-89.2200,10.0,26.9,11111222
Shell,ioos:station:wmo:42363:1,2020-10-01T10:05:00Z,28.1600,-89.2200,10.0,27.4,11111222
Shell,ioos:station:wmo:42363:1,2020-10-01T10:15:00Z,28.1600,-89.2200,10.0,27.3,11111222
Shell,ioos:station:wmo:42363:1,2020-10-01T10:25:00Z,28.1600,-89.2200,10.0,27.4,11111222
Shell,ioos:station:wmo:42363:1,2020-10-01T10:35:00Z,28.1600,-89.2200,10.0,27.5,11111222
Shell,ioos:station:wmo:42363:1,2020-10-01T10:45:00Z,28.1600,-89.2200,10.0,27.4,11111222
Shell,ioos:station:wmo:42363:1,2020-10-01T10:55:00Z,28.1600,-89.2200,10.0,27.5,11111222
Shell,ioos:station:wmo:42363:1,2020-10-01T11:05:00Z,28.1600,-89.2200,10.0,27.2,11111222
Shell,ioos:station:wmo:42363:1,2020-10-01T11:15:00Z,28.1600,-89.2200,10.0,27.2,11111222
Shell,ioos:station:wmo:42363:1,2020-10-01T11:25:00Z,28.1600,-89.2200,10.0,27.2,11111222
Shell,ioos:station:wmo:42363:1,2020-10-01T11:35:00Z,28.1600,-89.2200,10.0,27.3,11111222
Shell,ioos:station:wmo:42363:1,2020-10-01T11:45:00Z,28.1600,-89.2200,10.0,27.5,11111222
Shell,ioos:station:wmo:42363:1,2020-10-01T11:55:00Z,28.1600,-89.2200,10.0,27.5,11111222
Shell,ioos:station:wmo:42363:1,2020-10-01T12:05:00Z,28.1600,-89.2200,10.0,27.4,11111222
Shell,ioos:station:wmo:42363:1,2020-10-01T12:15:00Z,28.1600,-89.2200,10.0,27.1,11111222
Shell,ioos:station:wmo:42363:1,2020-10-01T12:25:00Z,28.1600,-89.2200,10.0,26.9,11111222
Shell,ioos:station:wmo:42363:1,2020-10-01T12:35:00Z,28.1600,-89.2200,10.0,26.3,11111222
Shell,ioos:station:wmo:42363:1,2020-10-01T12:45:00Z,28.1600,-89.2200,10.0,27.1,11111222
Shell,ioos:station:wmo:42363:1,2020-10-01T12:55:00Z,28.1600,-89.2200,10.0,26.4,11111222
Shell,ioos:station:wmo:42363:1,2020-10-01T13:05:00Z,28.1600,-89.2200,10.0,26.5,11111222
Shell,ioos:station:wmo:42363:1,2020-10-01T13:15:00Z,28.1600,-89.2200,10.0,27.1,11111222
Shell,ioos:station:wmo:42363:1,2020-10-01T13:25:00Z,28.1600,-89.2200,10.0,27.2,11111222
Shell,ioos:station:wmo:42363:1,2020-10-01T13:35:00Z,28.1600,-89.2200,10.0,27.4,11111222
Shell,ioos:station:wmo:42363:1,2020-10-01T13:45:00Z,28.1600,-89.2200,10.0,27.4,11111222
Shell,ioos:station:wmo:42363:1,2020-10-01T13:55:00Z,28.1600,-89.2200,10.0,27.4,11111222
Shell,ioos:station:wmo:42363:1,2020-10-01T14:05:00Z,28.1600,-89.2200,10.0,27.5,11111222
Shell,ioos:station:wmo:42363:1,2020-10-01T14:15:00Z,28.1600,-89.2200,10.0,27.5,11111222
Shell,ioos:station:wmo:42363:1,2020-10-01T14:25:00Z,28.1600,-89.2200,10.0,27.5,11111222
Shell,ioos:station:wmo:42363:1,2020-10-01T14:35:00Z,28.1600,-89.2200,10.0,27.2,11111222
Shell,ioos:station:wmo:42363:1,2020-10-01T14:45:00Z,28.1600,-89.2200,10.0,26.7,11111222
Shell,ioos:station:wmo:42363:1,2020-10-01T14:55:00Z,28.1600,-89.2200,10.0,27.1,11111222
Shell,ioos:station:wmo:42363:1,2020-10-01T15:05:00Z,28.1600,-89.2200,10.0,27.4,11111222
Shell,ioos:station:wmo:42363:1,2020-10-01T15:15:00Z,28.1600,-89.2200,10.0,27.4,11111222
Shell,ioos:station:wmo:42363:1,2020-10-01T15:25:00Z,28.1600,-89.2200,10.0,27.6,11111222
Shell,ioos:station:wmo:42363:1,2020-10-01T15:35:00Z,28.1600,-89.2200,10.0,27.4,11111222
Shell,ioos:station:wmo:42363:1,2020-10-01T15:45:00Z,28.1600,-89.2200,10.0,27.4,11111222
Shell,ioos:station:wmo:42363:1,2020-10-01T15:55:00Z,28.1600,-89.2200,10.0,27.2,11111222
Shell,ioos:station:wmo:42363:1,2020-10-01T16:05:00Z,28.1600,-89.2200,10.0,27.4,11111222
Shell,ioos:station:wmo:42363:1,2020-10-01T16:15:00Z,28.1600,-89.2200,10.0,27.3,11111222
Shell,ioos:station:wmo:42363:1,2020-10-01T16:25:00Z,28.1600,-89.2200,10.0,27.2,11111222
Shell,ioos:station:wmo:42363:1,2020-10-01T16:35:00Z,28.1600,-89.2200,10.0,26.9,11111222
Shell,ioos:station:wmo:42363:1,2020-10-01T16:45:00Z,28.1600,-89.2200,10.0,27.1,11111222
Shell,ioos:station:wmo:42363:1,2020-10-01T16:55:00Z,28.1600,-89.2200,10.0,27.3,11111222
Shell,ioos:station:wmo:42363:1,2020-10-01T17:05:00Z,28.1600,-89.2200,10.0,27.1,11111222
Shell,ioos:station:wmo:42363:1,2020-10-01T17:15:00Z,28.1600,-89.2200,10.0,27.3,11111222
Shell,ioos:station:wmo:42363:1,2020-10-01T17:25:00Z,28.1600,-89.2200,10.0,26.7,11111222
Shell,ioos:station:wmo:42363:1,2020-10-01T17:35:00Z,28.1600,-89.2200,10.0,26.8,11111222
Shell,ioos:station:wmo:42363:1,2020-10-01T17:45:00Z,28.1600,-89.2200,10.0,26.9,11111222
Shell,ioos:station:wmo:42363:1,2020-10-01T17:55:00Z,28.1600,-89.2200,10.0,26.7,11111222
Shell,ioos:station:wmo:42363:1,2020-10-01T18:05:00Z,28.1600,-89.2200,10.0,27.1,11111222
Shell,ioos:station:wmo:42363:1,2020-10-01T18:15:00Z,28.1600,-89.2200,10.0,26.4,11111222
Shell,ioos:station:wmo:42363:1,2020-10-01T18:25:00Z,28.1600,-89.2200,10.0,26.4,11111222
Shell,ioos:station:wmo:42363:1,2020-10-01T18:35:00Z,28.1600,-89.2200,10.0,26.6,11111222
Shell,ioos:station:wmo:42363:1,2020-10-01T18:45:00Z,28.1600,-89.2200,10.0,26.9,11111222
Shell,ioos:station:wmo:42363:1,2020-10-01T18:55:00Z,28.1600,-89.2200,10.0,26.6,11111222
Shell,ioos:station:wmo:42363:1,2020-10-01T19:05:00Z,28.1600,-89.2200,10.0,26.8,11111222
Shell,ioos:station:wmo:42363:1,2020-10-01T19:15:00Z,28.1600,-89.2200,10.0,26.8,11111222
Shell,ioos:station:wmo:42363:1,2020-10-01T19:25:00Z,28.1600,-89.2200,10.0,26.1,11111222
Shell,ioos:station:wmo:42363:1,2020-10-01T19:35:00Z,28.1600,-89.2200,10.0,26.7,11111222
Shell,ioos:station:wmo:42363:1,2020-10-01T19:45:00Z,28.1600,-89.2200,10.0,26.2,11111222
Shell,ioos:station:wmo:42363:1,2020-10-01T19:55:00Z,28.1600,-89.2200,10.0,26.5,11111222
Shell,ioos:station:wmo:42363:1,2020-10-01T20:05:00Z,28.1600,-89.2200,10.0,25.7,11111222
Shell,ioos:station:wmo:42363:1,2020-10-01T20:15:00Z,28.1600,-89.2200,10.0,26.4,11111222
Shell,ioos:station:wmo:42363:1,2020-10-01T20:25:00Z,28.1600,-89.2200,10.0,26.8,11111222
Shell,ioos:station:wmo:42363:1,2020-10-01T20:35:00Z,28.1600,-89.2200,10.0,26.5,11111222
Shell,ioos:station:wmo:42363:1,2020-10-01T20:45:00Z,28.1600,-89.2200,10.0,27.2,11111222
Shell,ioos:station:wmo:42363:1,2020-10-01T20:55:00Z,28.1600,-89.2200,10.0,27.2,11111222
Shell,ioos:station:wmo:42363:1,2020-10-01T21:05:00Z,28.1600,-89.2200,10.0,27.3,11111222
Shell,ioos:station:wmo:42363:1,2020-10-01T21:15:00Z,28.1600,-89.2200,10.0,27.2,11111222
Shell,ioos:station:wmo:42363:1,2020-10-01T21:25:00Z,28.1600,-89.2200,10.0,27.4,11111222
Shell,ioos:station:wmo:42363:1,2020-10-01T21:35:00Z,28.1600,-89.2200,10.0,27.3,11111222
Shell,ioos:station:wmo:42363:1,2020-10-01T21:45:00Z,28.1600,-89.2200,10.0,27.0,11111222
Shell,ioos:station:wmo:42363:1,2020-10-01T21:55:00Z,28.1600,-89.2200,10.0,27.3,11111222
Shell,ioos:station:wmo:42363:1,2020-10-01T22:05:00Z,28.1600,-89.2200,10.0,27.4,11111222
Shell,ioos:station:wmo:42363:1,2020-10-01T22:15:00Z,28.1600,-89.2200,10.0,27.4,11111222
Shell,ioos:station:wmo:42363:1,2020-10-01T22:25:00Z,28.1600,-89.2200,10.0,27.5,11111222
Shell,ioos:station:wmo:42363:1,2020-10-01T22:35:00Z,28.1600,-89.2200,10.0,27.3,11111222
Shell,ioos:station:wmo:42363:1,2020-10-01T22:45:00Z,28.1600,-89.2200,10.0,27.1,11111222
Shell,ioos:station:wmo:42363:1,2020-10-01T22:55:00Z,28.1600,-89.2200,10.0,27.3,11111222
Shell,ioos:station:wmo:42363:1,2020-10-01T23:05:00Z,28.1600,-89.2200,10.0,27.4,11111222
Shell,ioos:station:wmo:42363:1,2020-10-01T23:15:00Z,28.1600,-89.2200,10.0,27.3,11111222
Shell,ioos:station:wmo:42363:1,2020-10-01T23:25:00Z,28.1600,-89.2200,10.0,27.4,11111222
Shell,ioos:station:wmo:42363:1,2020-10-01T23:35:00Z,28.1600,-89.2200,10.0,27.4,11111222
Shell,ioos:station:wmo:42363:1,2020-10-01T23:45:00Z,28.1600,-89.2200,10.0,27.3,11111222
Shell,ioos:station:wmo:42363:1,2020-10-01T23:55:00Z,28.1600,-89.2200,10.0,27.5,11111222
Shell,ioos:station:wmo:42363:1,2020-10-02T00:05:00Z,28.1600,-89.2200,10.0,27.5,11111222
Shell,ioos:station:wmo:42363:1,2020-10-02T00:15:00Z,28.1600,-89.2200,10.0,27.4,11111222
Shell,ioos:station:wmo:42363:1,2020-10-02T00:25:00Z,28.1600,-89.2200,10.0,27.4,11111222
Shell,ioos:station:wmo:42363:1,2020-10-02T00:35:00Z,28.1600,-89.2200,10.0,27.4,11111222
Shell,ioos:station:wmo:42363:1,2020-10-02T00:45:00Z,28.1600,-89.2200,10.0,27.5,11111222
Shell,ioos:station:wmo:42363:1,2020-10-02T00:55:00Z,28.1600,-89.2200,10.0,27.5,11111222
Shell,ioos:station:wmo:42363:1,2020-10-02T01:05:00Z,28.1600,-89.2200,10.0,27.3,11111222
Shell,ioos:station:wmo:42363:1,2020-10-02T01:15:00Z,28.1600,-89.2200,10.0,27.5,11111222
Shell,ioos:station:wmo:42363:1,2020-10-02T01:25:00Z,28.1600,-89.2200,10.0,27.5,11111222
Shell,ioos:station:wmo:42363:1,2020-10-02T01:35:00Z,28.1600,-89.2200,10.0,27.3,11111222
Shell,ioos:station:wmo:42363:1,2020-10-02T01:45:00Z,28.1600,-89.2200,10.0,27.5,11111222
Shell,ioos:station:wmo:42363:1,2020-10-02T01:55:00Z,28.1600,-89.2200,10.0,27.5,11111222
Shell,ioos:station:wmo:42363:1,2020-10-02T02:05:00Z,28.1600,-89.2200,10.0,27.4,11111222
Shell,ioos:station:wmo:42363:1,2020-10-02T02:15:00Z,28.1600,-89.2200,10.0,27.4,11111222
Shell,ioos:station:wmo:42363:1,2020-10-02T02:25:00Z,28.1600,-89.2200,10.0,27.5,11111222
Shell,ioos:station:wmo:42363:1,2020-10-02T02:35:00Z,28.1600,-89.2200,10.0,27.4,11111222
Shell,ioos:station:wmo:42363:1,2020-10-02T02:45:00Z,28.1600,-89.2200,10.0,27.4,11111222
Shell,ioos:station:wmo:42363:1,2020-10-02T02:55:00Z,28.1600,-89.2200,10.0,27.5,11111222
Shell,ioos:station:wmo:42363:1,2020-10-02T03:05:00Z,28.1600,-89.2200,10.0,27.5,11111222
Shell,ioos:station:wmo:42363:1,2020-10-02T03:15:00Z,28.1600,-89.2200,10.0,27.5,11111222
Shell,ioos:station:wmo:42363:1,2020-10-02T03:25:00Z,28.1600,-89.2200,10.0,27.5,11111222
Shell,ioos:station:wmo:42363:1,2020-10-02T03:35:00Z,28.1600,-89.2200,10.0,27.5,11111222
Shell,ioos:station:wmo:42363:1,2020-10-02T03:45:00Z,28.1600,-89.2200,10.0,27.5,11111222
Shell,ioos:station:wmo:42363:1,2020-10-02T03:55:00Z,28.1600,-89.2200,10.0,27.5,11111222
Shell,ioos:station:wmo:42363:1,2020-10-02T04:05:00Z,28.1600,-89.2200,10.0,27.5,11111222
Shell,ioos:station:wmo:42363:1,2020-10-02T04:15:00Z,28.1600,-89.2200,10.0,27.5,11111222
Shell,ioos:station:wmo:42363:1,2020-10-02T04:25:00Z,28.1600,-89.2200,10.0,27.5,11111222
Shell,ioos:station:wmo:42363:1,2020-10-02T04:35:00Z,28.1600,-89.2200,10.0,27.4,11111222
Shell,ioos:station:wmo:42363:1,2020-10-02T04:45:00Z,28.1600,-89.2200,10.0,27.4,11111222
Shell,ioos:station:wmo:42363:1,2020-10-02T04:55:00Z,28.1600,-89.2200,10.0,27.5,11111222
Shell,ioos:station:wmo:42363:1,2020-10-02T05:05:00Z,28.1600,-89.2200,10.0,27.4,11111222
Shell,ioos:station:wmo:42363:1,2020-10-02T05:15:00Z,28.1600,-89.2200,10.0,27.4,11111222
Shell,ioos:station:wmo:42363:1,2020-10-02T05:25:00Z,28.1600,-89.2200,10.0,27.5,11111222
Shell,ioos:station:wmo:42363:1,2020-10-02T05:35:00Z,28.1600,-89.2200,10.0,27.5,11111222
Shell,ioos:station:wmo:42363:1,2020-10-02T05:45:00Z,28.1600,-89.2200,10.0,27.5,11111222
Shell,ioos:station:wmo:42363:1,2020-10-02T05:55:00Z,28.1600,-89.2200,10.0,27.3,11111222
Shell,ioos:station:wmo:42363:1,2020-10-02T06:05:00Z,28.1600,-89.2200,10.0,27.3,11111222
Shell,ioos:station:wmo:42363:1,2020-10-02T06:15:00Z,28.1600,-89.2200,10.0,27.3,11111222
Shell,ioos:station:wmo:42363:1,2020-10-02T06:25:00Z,28.1600,-89.2200,10.0,27.3,11111222
Shell,ioos:station:wmo:42363:1,2020-10-02T06:35:00Z,28.1600,-89.2200,10.0,27.3,11111222
Shell,ioos:station:wmo:42363:1,2020-10-02T06:45:00Z,28.1600,-89.2200,10.0,27.3,11111222
Shell,ioos:station:wmo:42363:1,2020-10-02T06:55:00Z,28.1600,-89.2200,10.0,27.4,11111222
Shell,ioos:station:wmo:42363:1,2020-10-02T07:05:00Z,28.1600,-89.2200,10.0,27.1,11111222
Shell,ioos:station:wmo:42363:1,2020-10-02T07:15:00Z,28.1600,-89.2200,10.0,27.2,11111222
Shell,ioos:station:wmo:42363:1,2020-10-02T07:25:00Z,28.1600,-89.2200,10.0,27.4,11111222
Shell,ioos:station:wmo:42363:1,2020-10-02T07:35:00Z,28.1600,-89.2200,10.0,27.4,11111222
Shell,ioos:station:wmo:42363:1,2020-10-02T07:45:00Z,28.1600,-89.2200,10.0,27.3,11111222
Shell,ioos:station:wmo:42363:1,2020-10-02T07:55:00Z,28.1600,-89.2200,10.0,27.2,11111222
Shell,ioos:station:wmo:42363:1,2020-10-02T08:05:00Z,28.1600,-89.2200,10.0,26.9,11111222
Shell,ioos:station:wmo:42363:1,2020-10-02T08:15:00Z,28.1600,-89.2200,10.0,26.1,11111222
Shell,ioos:station:wmo:42363:1,2020-10-02T08:25:00Z,28.1600,-89.2200,10.0,26.1,11111222
Shell,ioos:station:wmo:42363:1,2020-10-02T08:35:00Z,28.1600,-89.2200,10.0,25.8,11111222
Shell,ioos:station:wmo:42363:1,2020-10-02T08:45:00Z,28.1600,-89.2200,10.0,26.2,11111222
Shell,ioos:station:wmo:42363:1,2020-10-02T08:55:00Z,28.1600,-89.2200,10.0,25.3,11111222
Shell,ioos:station:wmo:42363:1,2020-10-02T09:05:00Z,28.1600,-89.2200,10.0,25.3,11111222
Shell,ioos:station:wmo:42363:1,2020-10-02T09:15:00Z,28.1600,-89.2200,10.0,25.1,11111222
Shell,ioos:station:wmo:42363:1,2020-10-02T09:25:00Z,28.1600,-89.2200,10.0,24.3,11111222
Shell,ioos:station:wmo:42363:1,2020-10-02T09:35:00Z,28.1600,-89.2200,10.0,25.3,11111222
Shell,ioos:station:wmo:42363:1,2020-10-02T09:45:00Z,28.1600,-89.2200,10.0,24.9,11111222
Shell,ioos:station:wmo:42363:1,2020-10-02T09:55:00Z,28.1600,-89.2200,10.0,24.2,11111222
Shell,ioos:station:wmo:42363:1,2020-10-02T10:05:00Z,28.1600,-89.2200,10.0,23.6,11111222
Shell,ioos:station:wmo:42363:1,2020-10-02T10:15:00Z,28.1600,-89.2200,10.0,25.8,11111222
Shell,ioos:station:wmo:42363:1,2020-10-02T10:25:00Z,28.1600,-89.2200,10.0,25.4,11111222
Shell,ioos:station:wmo:42363:1,2020-10-02T10:35:00Z,28.1600,-89.2200,10.0,24.5,11111222
Shell,ioos:station:wmo:42363:1,2020-10-02T10:45:00Z,28.1600,-89.2200,10.0,23.1,11111222
Shell,ioos:station:wmo:42363:1,2020-10-02T10:55:00Z,28.1600,-89.2200,10.0,25.5,11111222
Shell,ioos:station:wmo:42363:1,2020-10-02T11:05:00Z,28.1600,-89.2200,10.0,24.6,11111222
Shell,ioos:station:wmo:42363:1,2020-10-02T11:15:00Z,28.1600,-89.2200,10.0,24.9,11111222
Shell,ioos:station:wmo:42363:1,2020-10-02T11:25:00Z,28.1600,-89.2200,10.0,22.9,11111222
Shell,ioos:station:wmo:42363:1,2020-10-02T11:35:00Z,28.1600,-89.2200,10.0,25.7,11111222
Shell,ioos:station:wmo:42363:1,2020-10-02T11:45:00Z,28.1600,-89.2200,10.0,23.2,11111222
Shell,ioos:station:wmo:42363:1,2020-10-02T11:55:00Z,28.1600,-89.2200,10.0,23.4,11111222
Shell,ioos:station:wmo:42363:1,2020-10-02T12:05:00Z,28.1600,-89.2200,10.0,25.3,11111222
Shell,ioos:station:wmo:42363:1,2020-10-02T12:15:00Z,28.1600,-89.2200,10.0,24.1,11111222
Shell,ioos:station:wmo:42363:1,2020-10-02T12:25:00Z,28.1600,-89.2200,10.0,25.1,11111222
Shell,ioos:station:wmo:42363:1,2020-10-02T12:35:00Z,28.1600,-89.2200,10.0,25.3,11111222
Shell,ioos:station:wmo:42363:1,2020-10-02T12:45:00Z,28.1600,-89.2200,10.0,22.8,11111222
Shell,ioos:station:wmo:42363:1,2020-10-02T12:55:00Z,28.1600,-89.2200,10.0,23.5,11111222
Shell,ioos:station:wmo:42363:1,2020-10-02T13:05:00Z,28.1600,-89.2200,10.0,23.9,11111222
Shell,ioos:station:wmo:42363:1,2020-10-02T13:15:00Z,28.1600,-89.2200,10.0,22.3,11111222
Shell,ioos:station:wmo:42363:1,2020-10-02T13:25:00Z,28.1600,-89.2200,10.0,23.9,11111222
Shell,ioos:station:wmo:42363:1,2020-10-02T13:35:00Z,28.1600,-89.2200,10.0,23.0,11111222
Shell,ioos:station:wmo:42363:1,2020-10-02T13:45:00Z,28.1600,-89.2200,10.0,22.2,11111222
Shell,ioos:station:wmo:42363:1,2020-10-02T13:55:00Z,28.1600,-89.2200,10.0,23.2,11111222
Shell,ioos:station:wmo:42363:1,2020-10-02T14:05:00Z,28.1600,-89.2200,10.0,24.6,11111222
Shell,ioos:station:wmo:42363:1,2020-10-02T14:15:00Z,28.1600,-89.2200,10.0,25.4,11111222
Shell,ioos:station:wmo:42363:1,2020-10-02T14:25:00Z,28.1600,-89.2200,10.0,21.2,11111222
Shell,ioos:station:wmo:42363:1,2020-10-02T14:35:00Z,28.1600,-89.2200,10.0,22.7,11111222
Shell,ioos:station:wmo:42363:1,2020-10-02T14:45:00Z,28.1600,-89.2200,10.0,19.5,11111222
Shell,ioos:station:wmo:42363:1,2020-10-02T14:55:00Z,28.1600,-89.2200,10.0,25.3,11111222
Shell,ioos:station:wmo:42363:1,2020-10-02T15:05:00Z,28.1600,-89.2200,10.0,24.5,11111222
Shell,ioos:station:wmo:42363:1,2020-10-02T15:15:00Z,28.1600,-89.2200,10.0,19.9,11111222
Shell,ioos:station:wmo:42363:1,2020-10-02T15:25:00Z,28.1600,-89.2200,10.0,21.6,11111222
Shell,ioos:station:wmo:42363:1,2020-10-02T15:35:00Z,28.1600,-89.2200,10.0,23.3,11111222
Shell,ioos:station:wmo:42363:1,2020-10-02T15:45:00Z,28.1600,-89.2200,10.0,19.7,11111222
Shell,ioos:station:wmo:42363:1,2020-10-02T15:55:00Z,28.1600,-89.2200,10.0,21.5,11111222
Shell,ioos:station:wmo:42363:1,2020-10-02T16:05:00Z,28.1600,-89.2200,10.0,19.3,11111222
Shell,ioos:station:wmo:42363:1,2020-10-02T16:15:00Z,28.1600,-89.2200,10.0,21.1,11111222
Shell,ioos:station:wmo:42363:1,2020-10-02T16:25:00Z,28.1600,-89.2200,10.0,18.1,11111222
Shell,ioos:station:wmo:42363:1,2020-10-02T16:35:00Z,28.1600,-89.2200,10.0,20.4,11111222
Shell,ioos:station:wmo:42363:1,2020-10-02T16:45:00Z,28.1600,-89.2200,10.0,21.9,11111222
Shell,ioos:station:wmo:42363:1,2020-10-02T16:55:00Z,28.1600,-89.2200,10.0,23.3,11111222
Shell,ioos:station:wmo:42363:1,2020-10-02T17:05:00Z,28.1600,-89.2200,10.0,20.6,11111222
Shell,ioos:station:wmo:42363:1,2020-10-02T17:15:00Z,28.1600,-89.2200,10.0,22.0,11111222
Shell,ioos:station:wmo:42363:1,2020-10-02T17:25:00Z,28.1600,-89.2200,10.0,21.7,11111222
Shell,ioos:station:wmo:42363:1,2020-10-02T17:35:00Z,28.1600,-89.2200,10.0,21.7,11111222
Shell,ioos:station:wmo:42363:1,2020-10-02T17:45:00Z,28.1600,-89.2200,10.0,22.9,11111222
Shell,ioos:station:wmo:42363:1,2020-10-02T17:55:00Z,28.1600,-89.2200,10.0,21.6,11111222
Shell,ioos:station:wmo:42363:1,2020-10-02T18:05:00Z,28.1600,-89.2200,10.0,20.5,11111222
Shell,ioos:station:wmo:42363:1,2020-10-02T18:15:00Z,28.1600,-89.2200,10.0,19.4,11111222
Shell,ioos:station:wmo:42363:1,2020-10-02T18:25:00Z,28.1600,-89.2200,10.0,14.4,11111222
Shell,ioos:station:wmo:42363:1,2020-10-02T18:35:00Z,28.1600,-89.2200,10.0,16.8,11111222
Shell,ioos:station:wmo:42363:1,2020-10-02T18:45:00Z,28.1600,-89.2200,10.0,21.3,11111222
Shell,ioos:station:wmo:42363:1,2020-10-02T18:55:00Z,28.1600,-89.2200,10.0,21.9,11111222
Shell,ioos:station:wmo:42363:1,2020-10-02T19:05:00Z,28.1600,-89.2200,10.0,19.7,11111222
Shell,ioos:station:wmo:42363:1,2020-10-02T19:15:00Z,28.1600,-89.2200,10.0,17.7,11111222
Shell,ioos:station:wmo:42363:1,2020-10-02T19:25:00Z,28.1600,-89.2200,10.0,16.1,11111222
Shell,ioos:station:wmo:42363:1,2020-10-02T19:35:00Z,28.1600,-89.2200,10.0,16.5,11111222
Shell,ioos:station:wmo:42363:1,2020-10-02T19:45:00Z,28.1600,-89.2200,10.0,18.5,11111222
Shell,ioos:station:wmo:42363:1,2020-10-02T19:55:00Z,28.1600,-89.2200,10.0,12.8,11111222
Shell,ioos:station:wmo:42363:1,2020-10-02T20:05:00Z,28.1600,-89.2200,10.0,7.0,11113222
Shell,ioos:station:wmo:42363:1,2020-10-02T20:15:00Z,28.1600,-89.2200,10.0,19.2,11111222
Shell,ioos:station:wmo:42363:1,2020-10-02T20:25:00Z,28.1600,-89.2200,10.0,9.2,11113222
Shell,ioos:station:wmo:42363:1,2020-10-02T20:35:00Z,28.1600,-89.2200,10.0,19.2,11111222